Weather Roundup
Issued by NWS Corpus Christi, TX

Home | Current Version | Previous Version | Text Only | Print | Product List | Glossary On
Versions: 1 2 3 4 5 6 7 8 9 10 11 12 13 14 15 16 17 18 19 20 21 22 23 24 25 26 27 28 29 30 31 32 33 34 35 36 37 38 39 40 41 42 43 44 45 46 47 48 49 50
000
ASUS44 KCRP 261910
HRRCRP

SOUTH TEXAS REGIONAL WEATHER ROUNDUP
NATIONAL WEATHER SERVICE CORPUS CHRISTI TX
200 PM CDT SUN MAR 26 2017


TXZ229>244-262000-
...CORPUS CHRISTI AREA OBSERVATIONS...

CITY           SKY/WX    TMP DP  RH WIND       PRES   REMARKS
CORPUS CHRISTI MOSUNNY   84  68  58 S30G36    29.83F
NAS CORPUS CHR SUNNY    N/A N/A N/A SE21G32   29.84F
ROCKPORT       PTSUNNY   81  70  69 SE18G28   29.85F
KINGSVILLE NAS SUNNY     88  68  51 SE21G29   29.80F HX  91
ALICE          SUNNY     90  62  39 S13G21    29.80F HX  90
ORANGE GROVE   SUNNY     89  66  46 S14G22    29.81F HX  91
FALFURRIAS     SUNNY     90  60  36 S15G21    29.79F
$$

...VICTORIA AREA OBSERVATIONS...

CITY           SKY/WX    TMP DP  RH WIND       PRES   REMARKS
VICTORIA       SUNNY     83  65  54 S22G30    29.86S
BEEVILLE       FAIR      85  66  51 S16G23    29.83F
PLEASANTON     SUNNY     84  60  44 SE9G17    29.83F
SAN ANTONIO    MOSUNNY   83  59  44 S16G24    29.84F
$$

...LAREDO AREA OBSERVATIONS...

CITY           SKY/WX    TMP DP  RH WIND       PRES   REMARKS
LAREDO         SUNNY     90  62  39 SE15G22   29.78F HX  90
COTULLA        SUNNY     89  58  34 S10G16    29.80F
DEL RIO        SUNNY     83  60  45 SE7       29.80F
MCALLEN        SUNNY     90  67  46 SE25G33   29.80F HX  93
HEBBRONVILLE   SUNNY     86  58  38 S17G24    29.80F
$$

...OTHER TEXAS OBSERVATIONS...

CITY           SKY/WX    TMP DP  RH WIND       PRES   REMARKS
BROWNSVILLE    NOT AVBL
HOUSTON        MOSUNNY   84  64  50 S13       29.89F
COL. STATION   SUNNY     83  63  50 SE17      29.85F
AUSTIN         PTSUNNY   81  62  52 S10G25    29.83F
WACO           SUNNY     81  65  58 S16       29.82F
FORT WORTH     PTSUNNY   82  60  47 S23G35    29.78F
WICHITA FALLS  CLOUDY    77  58  51 S20G29    29.73F
LUBBOCK        MOSUNNY   77  17  10 W24G38    29.78F
EL PASO        MOSUNNY   71  22  15 W28G36    29.95F
$$

...MARINE OBSERVATIONS...

STATION/POSITION TIME  SKY/WX   TEMP    WIND        PRES    VSBY  WAVE   SWELL
                                AIR SEA DIR/SP/G                  HT/PER HT/PER
                 (UTC)          (F)     (DEG/KT/KT) (MB)    (MI)  (FT/S) (FT/S)
PORT ARANSAS     1900            73 72  130/ 14/ 16 1010.9F
BUOY 90 E PORT A 1850            74 73  150/ 17/ 21 1012.3F         4/ 8   2/ 8
BUOY 45 SE BAFFI 1850            74     150/ 19/ 23 1010.0F         5/ 8   3/ 8
BUOY 200 E PT IS 1850            76 77  150/ 12/ 14 1014.7F         4/ 5   3/ 6
BUOY 15 E GALVES 1850            72 72  140/ 10/ 12 1013.8F         3/ 7   2/ 7
$$



USA.gov is the U.S. government's official web portal to all federal, state and local government web resources and services.